Location: Lake Sonoma
(38.7200°N, 123.0564°W)
Time: 09:39:21
(UTC-08:00)

ISS - Visible Passes

Search period start: 03 December 2016 00:00
Search period end: 13 December 2016 00:00
Orbit: 401 x 410 km, 51.6° (Epoch: 03 December)

Date Brightness Start Highest point End Pass type
(mag) Time Alt. Az. Time Alt. Az. Time Alt. Az.
03 Dec -2.4 17:48:56 10° WSW 17:52:05 42° NW 17:54:29 16° NE visible
04 Dec -1.0 18:35:00 10° WNW 18:37:05 16° NNW 18:37:24 15° NNW visible
05 Dec -1.4 17:42:17 10° W 17:44:55 22° NNW 17:47:34 10° NNE visible
06 Dec -0.6 18:29:09 10° NNW 18:30:08 11° NNW 18:30:24 11° N visible
07 Dec -0.9 17:36:02 10° NW 17:37:52 14° NNW 17:39:41 10° NNE visible
09 Dec -0.7 17:30:26 10° NNW 17:30:52 10° N 17:31:18 10° N visible
12 Dec -0.9 18:08:12 10° N 18:09:02 11° N 18:09:02 11° N visible
